Weather History for Pittsburgh, PA

Change the Weather History Date:

Tuesday, February 5, 2013

  Actual Average Record
Temperature  
Mean Temperature 28 °F 30 °F  
Max Temperature 31 °F 37 °F 63 °F (1938)
Min Temperature 25 °F 22 °F -11 °F (1918)
Degree Days  
Heating Degree Days 37 36  
Month to date heating degree days 225 180  
Since 1 July heating degree days 3325 3489  
Cooling Degree Days 0 0  
Month to date cooling degree days 0 0  
Year to date cooling degree days 0 0  
Moisture  
Dew Point 24 °F    
Average Humidity 84    
Maximum Humidity 92    
Minimum Humidity 75    
Precipitation  
Precipitation 0.03 in 0.09 in 0.80 in (1908)
Month to date precipitation 0.22 0.44  
Year to date precipitation 2.66 3.14  
Snow  
Snow 0.60 in 0.40 in 11.40 in (2010)
Month to date snowfall 6.2 1.9  
Since 1 July snowfall 32.1 24.2  
Snow Depth 3.00 in    
Sea Level Pressure  
Sea Level Pressure 29.89 in    
Wind  
Wind Speed 3 mph (West)    
Max Wind Speed 15 mph    
Max Gust Speed 18 mph    
Visibility 4 miles    
Events Snow    
T = Trace of Precipitation, MM = Missing Value Source: NWS Daily Summary

Daily Weather History Graph

Daily Weather History Graph

Search for Another Location

Airport:

Trip Planner

Search our weather history database for the weather conditions in past years. The results will help you decide how hot, cold, wet, or windy it might be!

Date:

Astronomy

Feb. 05, 2013 Rise Set
Actual Time 7:26 AM EST 5:44 PM EST
Civil Twilight 6:57 AM EST 6:12 PM EST
Nautical Twilight 6:25 AM EST 6:45 PM EST
Astronomical Twilight 5:53 AM EST 7:17 PM EST
Moon 3:06 AM EST (2/5) 12:59 PM EST (2/5)
Length of Visible Light 11h 15m
Length of Day
10h 18m
Waning Crescent, 27% of the Moon is Illuminated
Feb 5
Waning Crescent
Feb 10
New
Feb 17
First Quarter
Feb 25
Full
Mar 4
Last Quarter

Hourly Weather History & Observations

Time (EST) Temp. Windchill Dew Point Humidity Pressure Visibility Wind Dir Wind Speed Gust Speed Precip Events Conditions
12:51 AM 25.0 °F - 21.9 °F 88% 29.89 in 5.0 mi Calm Calm - 0.00 in Snow Light Snow
1:51 AM 25.0 °F - 23.0 °F 92% 29.89 in 3.0 mi Calm Calm - 0.00 in   Overcast
2:16 AM 24.8 °F - 23.0 °F 93% 29.83 in 2.0 mi Calm Calm - N/A   Overcast
2:41 AM 24.8 °F 19.1 °F 24.8 °F 100% 29.84 in 1.8 mi WNW 4.6 mph - N/A   Overcast
2:51 AM 26.1 °F 18.4 °F 24.1 °F 92% 29.91 in 1.8 mi West 6.9 mph - 0.00 in Snow Light Snow
3:18 AM 26.6 °F - 24.8 °F 93% 29.82 in 2.0 mi Calm Calm - 0.00 in Snow Light Snow
3:51 AM 26.1 °F 21.9 °F 24.1 °F 92% 29.90 in 3.0 mi WNW 3.5 mph - 0.00 in   Overcast
4:51 AM 26.1 °F 21.9 °F 24.1 °F 92% 29.90 in 2.0 mi West 3.5 mph - 0.00 in Snow Light Snow
5:17 AM 26.6 °F 21.2 °F 24.8 °F 93% 29.84 in 2.0 mi WNW 4.6 mph - 0.00 in Snow Light Freezing Drizzle
5:51 AM 26.1 °F 19.4 °F 24.1 °F 92% 29.91 in 2.0 mi WNW 5.8 mph - 0.00 in Snow Light Freezing Drizzle
6:51 AM 26.1 °F - 24.1 °F 92% 29.91 in 2.0 mi Calm Calm - 0.00 in Snow Light Snow
7:51 AM 26.1 °F - 23.0 °F 88% 29.91 in 2.0 mi Calm Calm - 0.00 in   Overcast
8:51 AM 26.1 °F - 24.1 °F 92% 29.93 in 2.0 mi Calm Calm - N/A   Overcast
9:42 AM 26.6 °F - 24.8 °F 93% 29.85 in 3.0 mi Calm Calm - N/A   Overcast
9:51 AM 26.1 °F - 24.1 °F 92% 29.93 in 3.0 mi Calm Calm - N/A   Overcast
10:51 AM 27.0 °F - 25.0 °F 92% 29.93 in 2.0 mi Calm Calm - 0.00 in Snow Light Freezing Drizzle
11:51 AM 28.0 °F - 27.0 °F 96% 29.91 in 2.0 mi Calm Calm - 0.00 in Snow Light Freezing Drizzle
12:42 PM 28.4 °F - 26.6 °F 93% 29.82 in 2.0 mi Calm Calm - 0.00 in Snow Light Snow
12:51 PM 28.9 °F 23.9 °F 26.1 °F 89% 29.89 in 2.0 mi West 4.6 mph - 0.00 in Snow Light Snow
1:08 PM 28.4 °F 24.6 °F 26.6 °F 93% 29.81 in 3.0 mi West 3.5 mph - 0.00 in Snow Light Snow
1:51 PM 30.0 °F - 26.1 °F 85% 29.86 in 5.0 mi Calm Calm - 0.00 in Snow Light Snow
2:30 PM 30.2 °F 25.4 °F 26.6 °F 86% 29.79 in 8.0 mi West 4.6 mph - 0.00 in Snow Light Snow
2:51 PM 30.9 °F 24.3 °F 26.1 °F 82% 29.86 in 7.0 mi WSW 6.9 mph - 0.00 in Snow Light Snow
3:51 PM 30.9 °F 21.7 °F 25.0 °F 79% 29.88 in 8.0 mi West 11.5 mph - 0.00 in Snow Light Snow
4:51 PM 30.0 °F 21.1 °F 21.9 °F 72% 29.89 in 8.0 mi West 10.4 mph - 0.00 in   Mostly Cloudy
5:41 PM 28.4 °F - 21.2 °F 74% 29.83 in 10.0 mi Calm Calm - N/A   Mostly Cloudy
5:51 PM 28.9 °F 23.9 °F 21.0 °F 72% 29.90 in 10.0 mi West 4.6 mph - N/A   Mostly Cloudy
6:51 PM 27.0 °F - 21.0 °F 78% 29.92 in 10.0 mi Calm Calm - N/A   Overcast
7:41 PM 28.4 °F 24.6 °F 21.2 °F 74% 29.88 in 3.0 mi SW 3.5 mph - 0.00 in Snow Light Snow
7:51 PM 28.0 °F 21.7 °F 21.9 °F 78% 29.95 in 3.0 mi WSW 5.8 mph - 0.00 in Snow Light Snow
8:51 PM 27.0 °F 21.6 °F 24.1 °F 89% 29.96 in 3.0 mi WSW 4.6 mph - 0.00 in Snow Light Snow
9:30 PM 26.6 °F 21.2 °F 24.8 °F 93% 29.90 in 2.0 mi WSW 4.6 mph - 0.00 in Snow Light Snow
9:51 PM 27.0 °F 23.0 °F 24.1 °F 89% 29.97 in 6.0 mi SSW 3.5 mph - 0.00 in Snow Light Snow
10:44 PM 26.6 °F - 24.8 °F 93% 29.91 in 1.0 mi Calm Calm - 0.01 in Snow Light Snow
10:51 PM 27.0 °F - 25.0 °F 92% 29.97 in 1.0 mi Calm Calm - 0.01 in Snow Light Snow
11:51 PM 27.0 °F 23.0 °F 25.0 °F 92% 29.97 in 6.0 mi WSW 3.5 mph - 0.01 in Snow Light Snow